[[{"header":{"parameterUnit":"m.s-1","parameterCategory":1,"la1":30.2991,"la2":30.254,"lo1":-89.0895,"lo2":-89.0444,"dx":0.0017,"dy":0.0017,"nx":28,"ny":28,"refTime":"2022-12-13T15:00:00:Z","depth":0,"parameterNumber":2,"parameterNumberName":"U-component_of_WINDS"},"data":[0,0,0,0,0,0,0,0,0,0,0,0,0,0,0,0,0,0,0,0,0,0,0,0,0,0,0,0,0,0,0,0,0,0,0,0,0,0,0,0,0,0,0,0,0,0,0,0,0,0,0,0,0,0,0,0,0,0,-2.812,-2.8121,0,-2.8191,-2.8192,-2.8192,-2.8214,-2.8213,-2.8213,-2.8213,-2.8283,-2.8285,-2.8287,0,0,0,0,0,0,0,0,0,0,0,0,0,-2.7999,-2.8002,-2.812,-2.8121,-2.8122,-2.8191,-2.8192,-2.8193,-2.8214,-2.8213,-2.8213,-2.8212,-2.8282,-2.8285,-2.8287,0,0,0,0,0,0,0,0,0,0,0,0,0,-2.8059,-2.8002,-2.812,-2.8141,-2.8143,-2.819,-2.8192,-2.8193,-2.8214,-2.8213,-2.8213,-2.8212,-2.8281,-2.8284,-2.8288,-2.8319,0,0,-2.8298,-2.8299,0,0,0,0,0,0,0,0,-2.8056,-2.8063,-2.8137,-2.8139,-2.8142,-2.8193,-2.8175,-2.8235,-2.8214,-2.8187,-2.8213,-2.8212,-2.8253,-2.8259,-2.8273,-2.8322,-2.8325,-2.8298,-2.83,-2.8302,-2.8302,0,0,0,0,0,0,0,-2.8052,-2.8061,-2.8148,-2.8138,-2.8141,-2.8145,-2.8153,-2.8186,-2.8222,-2.8189,-2.8191,-2.8199,-2.8255,-2.827,-2.8275,-2.8326,-2.8298,-2.8301,-2.8303,-2.8304,-2.8402,-2.8402,0,0,0,0,0,0,-2.8044,-2.8057,-2.8146,-2.815,-2.8097,-2.8148,-2.8157,-2.8177,-2.8222,-2.8228,-2.82,-2.82,-2.8265,-2.8271,-2.8277,-2.8315,-2.8302,-2.8305,-2.8306,-2.8401,-2.8402,-2.8403,0,0,0,0,0,0,-2.8042,-2.8052,-2.8143,-2.8104,-2.8116,-2.8151,-2.8173,-2.8179,-2.8194,-2.823,-2.8236,-2.8209,-2.8264,-2.8273,-2.8308,-2.8318,-2.8306,-2.8309,-2.84,-2.8401,-2.8402,-2.8392,0,0,0,0,0,0,-2.8038,-2.8051,-2.8064,-2.8104,-2.8118,-2.8173,-2.8174,-2.8181,-2.82,-2.8201,-2.824,-2.8246,-2.8265,-2.8303,-2.8311,-2.8323,-2.8312,-2.84,-2.8401,-2.8402,-2.8392,-2.8393,-2.8393,0,0,0,0,0,-2.8034,-2.8058,-2.8064,-2.8075,-2.8135,-2.8174,-2.8181,-2.8203,-2.8201,-2.8213,-2.8236,-2.8245,-2.8316,-2.8306,-2.8316,-2.8328,-2.8399,-2.84,-2.8402,-2.8391,-2.8392,-2.8393,0,0,0,0,0,0,-2.8018,-2.8064,-2.8071,-2.811,-2.8138,-2.8177,-2.8194,-2.8204,-2.8232,-2.8232,-2.8257,-2.8266,-2.8299,-2.8317,-2.8306,-2.836,-2.8358,-2.8361,-2.8346,-2.8348,-2.8349,-2.8343,-2.8314,0,0,0,0,0,-2.8019,-2.8047,-2.8086,-2.8116,-2.8129,-2.8159,-2.8177,-2.8191,-2.8221,-2.8232,-2.8258,-2.8285,-2.8313,-2.8332,-2.836,-2.8395,-2.8402,-2.8408,-2.8408,-2.8409,-2.8411,-2.8429,-2.8432,-2.8407,-2.8407,-2.8407,0,0,-2.8021,-2.805,-2.8066,-2.8113,-2.8137,-2.8164,-2.8169,-2.8198,-2.8219,-2.8237,-2.8271,-2.829,-2.8323,-2.8357,-2.8374,-2.8374,-2.842,-2.8411,-2.8411,-2.8413,-2.8431,-2.8433,-2.8435,-2.8408,-2.8408,-2.8408,0,0,-2.8039,-2.8065,-2.8092,-2.8115,-2.815,-2.8169,-2.8176,-2.8214,-2.8227,-2.8262,-2.8276,-2.83,-2.8349,-2.8371,-2.8388,-2.8413,-2.8422,-2.8422,-2.8426,-2.8443,-2.8445,-2.8447,-2.8454,-2.8457,-2.8424,-2.8424,-2.8424,0,-2.8038,-2.8081,-2.8104,-2.8133,-2.8152,-2.817,-2.8197,-2.8218,-2.826,-2.8272,-2.8272,-2.8333,-2.8356,-2.8395,-2.8401,-2.8415,-2.8422,-2.8417,-2.8443,-2.8445,-2.8447,-2.8455,-2.8458,-2.8424,-2.8424,-2.8424,-2.8424,0,-2.8076,-2.8106,-2.8123,-2.8164,-2.8185,-2.8213,-2.8239,-2.8258,-2.827,-2.8289,-2.8323,-2.8351,-2.8385,-2.8395,-2.8408,-2.8436,-2.8435,-2.8438,-2.8437,-2.8449,-2.8456,-2.8459,-2.8423,-2.8423,-2.8423,-2.8423,0,0,-2.8087,-2.8139,-2.8145,-2.8163,-2.8202,-2.8225,-2.8253,-2.8286,-2.8301,-2.8329,-2.8352,-2.8392,-2.8395,-2.8415,-2.843,-2.8445,-2.8461,-2.8447,-2.8448,-2.8447,-2.8492,-2.8489,-2.8492,-2.8467,-2.8468,-2.8468,-2.8489,0,-2.8109,-2.816,-2.8181,-2.8221,-2.8248,-2.8264,-2.8288,-2.8314,-2.8332,-2.8356,-2.8376,-2.8404,-2.8407,-2.8419,-2.8434,-2.8456,-2.847,-2.8455,-2.8487,-2.8488,-2.8478,-2.8496,-2.8493,-2.8512,-2.8493,-2.8493,-2.8494,0,-2.8142,-2.817,-2.8213,-2.8248,-2.826,-2.8281,-2.8313,-2.8336,-2.8365,-2.8377,-2.8399,-2.8412,-2.844,-2.8437,-2.8475,-2.8464,-2.8479,-2.8491,-2.8492,-2.8495,-2.8491,-2.8499,-2.8518,-2.8521,-2.8499,-2.8498,-2.8498,0,-2.8143,-2.8192,-2.8224,-2.8239,-2.8281,-2.8295,-2.8313,-2.8342,-2.836,-2.8387,-2.8399,-2.8429,-2.8445,-2.8467,-2.8488,-2.8484,-2.8524,-2.8522,-2.8533,-2.8533,-2.8541,-2.854,-2.8561,-2.8551,-2.8551,-2.8551,-2.8551,0,-2.8165,-2.8191,-2.8225,-2.8245,-2.8273,-2.8297,-2.8324,-2.8343,-2.8368,-2.839,-2.8407,-2.8427,-2.8453,-2.8477,-2.8493,-2.8521,-2.8529,-2.8538,-2.8542,-2.8537,-2.8535,-2.8546,-2.8545,-2.8552,-2.8552,-2.8552,-2.8551,0,-2.8172,-2.8196,-2.8232,-2.8269,-2.8278,-2.8297,-2.8328,-2.8347,-2.8366,-2.8394,-2.8402,-2.8431,-2.8459,-2.8482,-2.8519,-2.853,-2.8559,-2.8564,-2.8549,-2.8551,-2.8561,-2.8559,-2.8589,-2.8594,-2.8581,-2.8581,-2.8581,0,-2.8184,-2.8204,-2.8243,-2.8259,-2.8277,-2.8303,-2.8322,-2.8345,-2.8364,-2.8398,-2.8412,-2.8442,-2.8467,-2.8511,-2.8535,-2.8563,-2.8568,-2.8577,-2.8572,-2.8565,-2.8567,-2.8565,-2.8567,-2.8577,-2.8577,-2.8577,-2.8577,0,-2.8202,-2.8213,-2.824,-2.827,-2.8292,-2.8317,-2.8342,-2.8354,-2.8382,-2.8402,-2.8431,-2.8451,-2.8488,-2.8517,-2.8548,-2.8565,-2.8575,-2.8578,-2.8582,-2.8576,-2.8566,-2.8571,-2.855,-2.8577,-2.8577,-2.8577,-2.8577,-2.8577,-2.8211,-2.8229,-2.8259,-2.8288,-2.8309,-2.8332,-2.8351,-2.8372,-2.8397,-2.843,-2.8442,-2.8472,-2.8499,-2.8541,-2.8559,-2.8582,-2.8583,-2.8589,-2.859,-2.8591,-2.859,-2.8563,-2.8588,-2.8588,-2.8588,-2.8588,-2.8588,0,-2.823,-2.8249,-2.8276,-2.831,-2.8332,-2.8341,-2.8369,-2.8386,-2.8413,-2.8438,-2.8462,-2.8495,-2.8523,-2.8548,-2.8577,-2.859,-2.8596,-2.8597,-2.8596,-2.8599,-2.8588,-2.8581,-2.8592,-2.8592,-2.8592,-2.8592,-2.8592,-2.8592,-2.8242,-2.8272,-2.8286,-2.8327,-2.8346,-2.8376,-2.8391,-2.8412,-2.8432,-2.8468,-2.8491,-2.8508,-2.8533,-2.8564,-2.8589,-2.8596,-2.8605,-2.8605,-2.8613,-2.8601,-2.86,-2.86,-2.8594,-2.8607,-2.8607,-2.8623,-2.8623,-2.8623]},{"header":{"parameterUnit":"m.s-1","parameterCategory":1,"la1":30.2991,"la2":30.254,"lo1":-89.0895,"lo2":-89.0444,"dx":0.0017,"dy":0.0017,"nx":28,"ny":28,"refTime":"2022-12-13T15:00:00:Z","depth":0,"parameterNumber":3,"parameterNumberName":"V-component_of_WINDS"},"data":[0,0,0,0,0,0,0,0,0,0,0,0,0,0,0,0,0,0,0,0,0,0,0,0,0,0,0,0,0,0,0,0,0,0,0,0,0,0,0,0,0,0,0,0,0,0,0,0,0,0,0,0,0,0,0,0,0,0,2.7033,2.7034,0,2.7097,2.7098,2.7099,2.7113,2.7113,2.7112,2.7112,2.7176,2.7179,2.7181,0,0,0,0,0,0,0,0,0,0,0,0,0,2.6926,2.6928,2.7033,2.7034,2.7035,2.7097,2.7098,2.7099,2.7113,2.7113,2.7112,2.7112,2.7176,2.7178,2.7181,0,0,0,0,0,0,0,0,0,0,0,0,0,2.6979,2.6928,2.7033,2.7049,2.7051,2.7097,2.7098,2.7099,2.7113,2.7113,2.7112,2.7111,2.7175,2.7178,2.7181,2.7214,0,0,2.7191,2.7192,0,0,0,0,0,0,0,0,2.6976,2.6983,2.7046,2.7048,2.7051,2.7096,2.7084,2.7138,2.7113,2.709,2.7112,2.7111,2.715,2.7155,2.7169,2.7217,2.722,2.7191,2.7193,2.7195,2.7195,0,0,0,0,0,0,0,2.6972,2.698,2.7058,2.7047,2.705,2.7054,2.7061,2.7094,2.7123,2.7092,2.7093,2.71,2.7151,2.7166,2.7171,2.7221,2.7191,2.7194,2.7196,2.7197,2.7305,2.7305,0,0,0,0,0,0,2.6966,2.6977,2.7056,2.706,2.7011,2.7057,2.7065,2.7082,2.7123,2.7128,2.7101,2.7101,2.7161,2.7167,2.7173,2.7217,2.7195,2.7198,2.7199,2.7304,2.7305,2.7306,0,0,0,0,0,0,2.6963,2.6973,2.7054,2.7019,2.703,2.7059,2.7079,2.7084,2.7098,2.713,2.7135,2.711,2.716,2.7168,2.7205,2.7219,2.7199,2.7202,2.7303,2.7304,2.7305,2.7304,0,0,0,0,0,0,2.696,2.6972,2.6984,2.7019,2.7032,2.7084,2.708,2.7086,2.7104,2.7105,2.714,2.7145,2.716,2.72,2.7208,2.7223,2.7204,2.7301,2.7303,2.7305,2.7303,2.7305,2.7307,0,0,0,0,0,2.6956,2.6979,2.6984,2.6993,2.7047,2.7085,2.7092,2.7109,2.7105,2.7118,2.7139,2.7144,2.7217,2.7204,2.7213,2.7229,2.7301,2.7303,2.7305,2.7302,2.7305,2.7307,0,0,0,0,0,0,2.6943,2.6984,2.699,2.7025,2.7052,2.7087,2.7104,2.7111,2.7139,2.7138,2.7159,2.7167,2.7203,2.722,2.7205,2.7266,2.7259,2.7263,2.7253,2.7256,2.7258,2.7254,2.7207,0,0,0,0,0,2.6945,2.6971,2.7006,2.7034,2.7047,2.7073,2.709,2.7102,2.713,2.7141,2.7164,2.7191,2.7221,2.7239,2.7268,2.7306,2.7315,2.7322,2.7324,2.7326,2.7329,2.7354,2.7358,2.7313,2.7313,2.7313,0,0,2.6947,2.6973,2.6988,2.7032,2.7054,2.7082,2.7082,2.7111,2.7133,2.7145,2.7182,2.72,2.7232,2.7271,2.7289,2.7286,2.7344,2.7328,2.7329,2.7332,2.7356,2.7361,2.7364,2.7314,2.7314,2.7314,0,0,2.6967,2.6988,2.7016,2.7038,2.7072,2.709,2.7097,2.7133,2.7146,2.7183,2.7194,2.7221,2.727,2.7294,2.7312,2.7346,2.7352,2.7355,2.7366,2.739,2.7393,2.7397,2.7411,2.7415,2.7358,2.7358,2.7358,0,2.6966,2.7008,2.7028,2.7058,2.7079,2.7093,2.7122,2.7143,2.7184,2.7198,2.7195,2.726,2.7282,2.7328,2.7337,2.7351,2.7361,2.735,2.7391,2.7395,2.7398,2.7412,2.7417,2.7358,2.7358,2.7358,2.7358,0,2.7007,2.7037,2.7055,2.7096,2.7119,2.7147,2.7174,2.7194,2.7205,2.7224,2.7264,2.7292,2.7329,2.734,2.735,2.7389,2.7387,2.7387,2.738,2.7402,2.7416,2.7421,2.7358,2.7358,2.7358,2.7358,0,0,2.7017,2.7072,2.7079,2.7099,2.714,2.7164,2.7195,2.7232,2.725,2.7279,2.7307,2.7351,2.7353,2.7374,2.7388,2.7409,2.7438,2.7407,2.7408,2.7413,2.7485,2.7485,2.7491,2.7442,2.7443,2.7444,2.7483,0,2.7043,2.7099,2.712,2.7167,2.7196,2.7213,2.7241,2.727,2.7289,2.7318,2.734,2.7372,2.7371,2.7384,2.7406,2.7429,2.7452,2.7427,2.747,2.7471,2.7462,2.7497,2.7496,2.7531,2.7488,2.7489,2.749,0,2.7079,2.7111,2.7161,2.7202,2.7215,2.7239,2.7277,2.7304,2.7338,2.7352,2.7377,2.7391,2.7426,2.7418,2.7469,2.7451,2.747,2.7485,2.7487,2.7492,2.7482,2.7504,2.7542,2.7548,2.7498,2.7497,2.7496,0,2.7084,2.7139,2.7177,2.7194,2.7242,2.7259,2.728,2.7314,2.7336,2.737,2.7385,2.7421,2.7441,2.747,2.7494,2.7485,2.7543,2.7536,2.7556,2.7556,2.7567,2.7566,2.761,2.7578,2.7578,2.7578,2.7578,0,2.711,2.7141,2.718,2.7203,2.7239,2.7265,2.73,2.7322,2.7353,2.7382,2.7399,2.7426,2.7455,2.7487,2.7506,2.7547,2.7555,2.7568,2.7572,2.7567,2.7565,2.758,2.7578,2.758,2.7579,2.7579,2.7579,0,2.7121,2.7148,2.7191,2.7235,2.7247,2.7271,2.7309,2.7334,2.7356,2.7393,2.7403,2.7438,2.7477,2.7504,2.7552,2.7566,2.761,2.7614,2.7599,2.7601,2.7621,2.7619,2.7676,2.7686,2.7646,2.7647,2.7647,0,2.7136,2.716,2.7207,2.7229,2.725,2.7284,2.7308,2.7335,2.7359,2.7403,2.7423,2.7463,2.7496,2.7558,2.7588,2.7627,2.7632,2.765,2.7638,2.7633,2.7635,2.7633,2.7637,2.7651,2.7652,2.7652,2.7652,0,2.716,2.7174,2.7207,2.7247,2.7276,2.7308,2.734,2.7357,2.7391,2.7417,2.7458,2.7484,2.7537,2.7577,2.762,2.7642,2.7654,2.7656,2.7663,2.7657,2.7649,2.7656,2.7605,2.7654,2.7654,2.7654,2.7654,2.7654,2.7175,2.7199,2.7237,2.7275,2.7303,2.7334,2.7361,2.7388,2.7422,2.7467,2.7482,2.7525,2.7563,2.7621,2.7645,2.768,2.7679,2.7689,2.7691,2.7693,2.7695,2.7643,2.7688,2.7688,2.7688,2.7688,2.7688,0,2.7202,2.7228,2.7263,2.731,2.7341,2.735,2.7388,2.7413,2.7451,2.7486,2.752,2.7569,2.761,2.7644,2.7687,2.7709,2.7715,2.7719,2.7718,2.7724,2.7692,2.7683,2.7713,2.7713,2.7713,2.7713,2.7713,2.7713,2.7219,2.7261,2.728,2.7338,2.7364,2.7407,2.7429,2.7459,2.7487,2.7541,2.7576,2.7599,2.7635,2.7681,2.772,2.7729,2.7745,2.7748,2.7759,2.7728,2.7725,2.7723,2.7714,2.7751,2.7751,2.7788,2.7788,2.7788]}]]